• In Hungary
  • List of Countries
  • For 7 days
  • Water Temperature
  • Satellite Maps
  • Weather Map
  • News
  • Weather Widgets
  • user-avatar
    Login

    Hourly Weather SanFrancisco

    Today, 17 December, Sunday

    Time Temperature Precipitation Wind Pressure Humidity
    00:00 +26°C° 0 mm 2 mps 750 mmHg 74%
    01:00 +26°C° 0 mm 3 mps 750 mmHg 73%
    02:00 +25°C° 0 mm 3 mps 750 mmHg 73%
    03:00 +25°C° 0 mm 3 mps 750 mmHg 73%
    04:00 +24°C° 0 mm 3 mps 750 mmHg 73%
    05:00 +25°C° 0 mm 4 mps 751 mmHg 73%
    06:00 +25°C° 0 mm 4 mps 751 mmHg 74%
    07:00 +25°C° 0 mm 4 mps 752 mmHg 74%
    08:00 +27°C° 0 mm 5 mps 752 mmHg 68%
    09:00 +29°C° 0 mm 5 mps 752 mmHg 63%
    10:00 +32°C° 0 mm 5 mps 753 mmHg 57%
    11:00 +33°C° 0 mm 5 mps 752 mmHg 54%
    12:00 +34°C° 0 mm 5 mps 751 mmHg 51%
    13:00 +35°C° 0 mm 4 mps 751 mmHg 47%
    14:00 +35°C° 0 mm 4 mps 750 mmHg 49%
    15:00 +34°C° 0 mm 4 mps 749 mmHg 50%
    16:00 +34°C° 0 mm 4 mps 748 mmHg 52%
    17:00 +31°C° 0 mm 3 mps 748 mmHg 57%
    18:00 +30°C° 0 mm 3 mps 748 mmHg 63%
    19:00 +28°C° 0 mm 2 mps 749 mmHg 69%
    20:00 +27°C° 0 mm 2 mps 749 mmHg 71%
    21:00 +27°C° 0 mm 2 mps 749 mmHg 72%
    22:00 +26°C° 0 mm 2 mps 750 mmHg 73%
    23:00 +26°C° 0 mm 2 mps 750 mmHg 74%

    Tomorrow, 18 December, Monday

    Time Temperature Precipitation Wind Pressure Humidity
    00:00 +26°C° 0 mm 2 mps 749 mmHg 74%
    01:00 +25°C° 0 mm 3 mps 749 mmHg 74%
    02:00 +25°C° 0 mm 3 mps 749 mmHg 75%
    03:00 +25°C° 0 mm 3 mps 749 mmHg 76%
    04:00 +24°C° 0 mm 3 mps 750 mmHg 77%
    05:00 +25°C° 0 mm 3 mps 750 mmHg 76%
    06:00 +25°C° 0 mm 4 mps 751 mmHg 76%
    07:00 +26°C° 0 mm 4 mps 751 mmHg 75%
    08:00 +28°C° 0 mm 4 mps 752 mmHg 69%
    09:00 +30°C° 0 mm 5 mps 752 mmHg 64%
    10:00 +33°C° 0 mm 5 mps 752 mmHg 59%
    11:00 +34°C° 0 mm 5 mps 752 mmHg 55%
    12:00 +35°C° 0 mm 5 mps 751 mmHg 51%
    13:00 +36°C° 0 mm 5 mps 750 mmHg 48%
    14:00 +35°C° 0 mm 4 mps 749 mmHg 48%
    15:00 +35°C° 0 mm 4 mps 749 mmHg 49%
    16:00 +35°C° 0 mm 4 mps 748 mmHg 49%
    17:00 +33°C° 0 mm 3 mps 748 mmHg 55%
    18:00 +30°C° 0 mm 3 mps 748 mmHg 61%
    19:00 +28°C° 0 mm 2 mps 749 mmHg 66%
    20:00 +28°C° 0 mm 2 mps 749 mmHg 68%
    21:00 +27°C° 0 mm 2 mps 750 mmHg 69%
    22:00 +27°C° 0 mm 2 mps 750 mmHg 71%
    23:00 +27°C° 0 mm 2 mps 750 mmHg 71%

    Day after tomorrow, 19 December, Tuesday

    Time Temperature Precipitation Wind Pressure Humidity
    00:00 +26°C° 0 mm 2 mps 750 mmHg 72%
    01:00 +26°C° 0 mm 3 mps 750 mmHg 73%
    02:00 +26°C° 0 mm 3 mps 750 mmHg 74%
    03:00 +25°C° 0 mm 3 mps 750 mmHg 74%
    04:00 +25°C° 0 mm 3 mps 750 mmHg 75%
    05:00 +25°C° 0 mm 3 mps 751 mmHg 74%
    06:00 +26°C° 0 mm 4 mps 751 mmHg 74%
    07:00 +26°C° 0 mm 4 mps 752 mmHg 73%
    08:00 +28°C° 0 mm 4 mps 752 mmHg 68%
    09:00 +30°C° 0 mm 5 mps 752 mmHg 62%
    10:00 +33°C° 0 mm 5 mps 752 mmHg 57%
    11:00 +34°C° 0 mm 5 mps 751 mmHg 54%
    12:00 +35°C° 0 mm 4 mps 750 mmHg 50%
    13:00 +36°C° 0 mm 4 mps 749 mmHg 47%
    14:00 +36°C° 0 mm 4 mps 749 mmHg 47%
    15:00 +35°C° 0 mm 4 mps 748 mmHg 48%
    16:00 +35°C° 0 mm 3 mps 747 mmHg 49%
    17:00 +33°C° 0 mm 3 mps 747 mmHg 54%
    18:00 +31°C° 0 mm 2 mps 748 mmHg 59%
    19:00 +29°C° 0 mm 2 mps 748 mmHg 64%
    20:00 +29°C° 0 mm 2 mps 749 mmHg 65%
    21:00 +28°C° 0 mm 1 mps 749 mmHg 66%
    22:00 +28°C° 0 mm 1 mps 750 mmHg 67%
    23:00 +28°C° 0 mm 2 mps 750 mmHg 69%

    20 December, Wednesday

    Time Temperature Precipitation Wind Pressure Humidity
    00:00 +27°C° 0 mm 2 mps 749 mmHg 70%
    01:00 +27°C° 0 mm 2 mps 749 mmHg 71%
    02:00 +26°C° 0 mm 3 mps 749 mmHg 72%
    03:00 +26°C° 0 mm 3 mps 749 mmHg 73%
    04:00 +26°C° 0 mm 3 mps 749 mmHg 74%
    05:00 +26°C° 0 mm 3 mps 750 mmHg 73%
    06:00 +26°C° 0 mm 4 mps 750 mmHg 73%
    07:00 +27°C° 0 mm 4 mps 751 mmHg 72%
    08:00 +28°C° 0 mm 5 mps 751 mmHg 67%
    09:00 +30°C° 0 mm 5 mps 751 mmHg 63%
    10:00 +33°C° 0 mm 5 mps 751 mmHg 58%
    11:00 +34°C° 0 mm 4 mps 750 mmHg 54%
    12:00 +35°C° 0 mm 4 mps 749 mmHg 51%
    13:00 +36°C° 0 mm 4 mps 748 mmHg 47%
    14:00 +36°C° 0 mm 4 mps 748 mmHg 48%
    15:00 +35°C° 0 mm 4 mps 747 mmHg 48%
    16:00 +35°C° 0 mm 4 mps 746 mmHg 49%
    17:00 +33°C° 0 mm 3 mps 747 mmHg 54%
    18:00 +31°C° 0 mm 2 mps 747 mmHg 59%
    19:00 +29°C° 0 mm 2 mps 747 mmHg 64%
    20:00 +29°C° 0 mm 2 mps 748 mmHg 65%
    21:00 +28°C° 0 mm 2 mps 748 mmHg 66%
    22:00 +28°C° 0 mm 2 mps 749 mmHg 67%
    23:00 +27°C° 0 mm 2 mps 748 mmHg 67%

    21 December, Thursday

    Time Temperature Precipitation Wind Pressure Humidity
    00:00 +27°C° 0 mm 2 mps 748 mmHg 67%
    01:00 +27°C° 0 mm 3 mps 748 mmHg 67%
    02:00 +26°C° 0 mm 3 mps 748 mmHg 69%
    03:00 +26°C° 0 mm 3 mps 748 mmHg 70%
    04:00 +26°C° 0 mm 3 mps 748 mmHg 72%
    05:00 +26°C° 0 mm 3 mps 749 mmHg 72%
    06:00 +26°C° 0 mm 4 mps 750 mmHg 72%
    07:00 +27°C° 0 mm 4 mps 751 mmHg 73%
    08:00 +28°C° 0 mm 4 mps 751 mmHg 67%
    09:00 +30°C° 0 mm 5 mps 751 mmHg 62%
    10:00 +33°C° 0 mm 5 mps 751 mmHg 56%
    11:00 +34°C° 0 mm 5 mps 750 mmHg 52%
    12:00 +35°C° 0 mm 4 mps 749 mmHg 48%
    13:00 +36°C° 0 mm 4 mps 748 mmHg 44%
    14:00 +36°C° 0 mm 4 mps 748 mmHg 45%
    15:00 +36°C° 0 mm 4 mps 747 mmHg 46%
    16:00 +35°C° 0 mm 4 mps 746 mmHg 47%
    17:00 +34°C° 0 mm 3 mps 747 mmHg 53%
    18:00 +31°C° 0 mm 3 mps 747 mmHg 58%
    19:00 +29°C° 0 mm 2 mps 747 mmHg 64%
    20:00 +29°C° 0 mm 2 mps 748 mmHg 65%
    21:00 +28°C° 0 mm 2 mps 748 mmHg 66%
    22:00 +28°C° 0 mm 2 mps 749 mmHg 67%
    23:00 +28°C° 0 mm 2 mps 749 mmHg 68%

    22 December, Friday

    Time Temperature Precipitation Wind Pressure Humidity
    00:00 +27°C° 0 mm 3 mps 748 mmHg 68%
    01:00 +27°C° 0 mm 3 mps 748 mmHg 69%
    02:00 +27°C° 0 mm 3 mps 748 mmHg 70%
    03:00 +26°C° 0 mm 3 mps 749 mmHg 70%
    04:00 +26°C° 0 mm 3 mps 749 mmHg 71%
    05:00 +26°C° 0 mm 4 mps 749 mmHg 71%
    06:00 +27°C° 0 mm 4 mps 750 mmHg 72%
    07:00 +27°C° 0 mm 5 mps 751 mmHg 72%
    08:00 +29°C° 0 mm 5 mps 751 mmHg 67%
    09:00 +30°C° 0 mm 5 mps 751 mmHg 61%
    10:00 +33°C° 0 mm 5 mps 751 mmHg 56%
    11:00 +34°C° 0 mm 5 mps 750 mmHg 53%
    12:00 +35°C° 0 mm 5 mps 749 mmHg 49%
    13:00 +36°C° 0 mm 5 mps 748 mmHg 46%
    14:00 +36°C° 0 mm 4 mps 748 mmHg 46%
    15:00 +36°C° 0 mm 4 mps 747 mmHg 47%
    16:00 +35°C° 0 mm 4 mps 747 mmHg 47%
    17:00 +34°C° 0 mm 4 mps 747 mmHg 52%
    18:00 +31°C° 0 mm 3 mps 747 mmHg 57%
    19:00 +29°C° 0 mm 2 mps 748 mmHg 61%
    20:00 +29°C° 0 mm 2 mps 748 mmHg 62%
    21:00 +29°C° 0 mm 2 mps 749 mmHg 64%
    22:00 +28°C° 0 mm 2 mps 749 mmHg 65%
    23:00 +28°C° 0 mm 3 mps 749 mmHg 66%
    Show more